BBC388 VGHS-VTBS

Flight info

Callsign BBC388
Flight time N/A
Altitude 37000
Route ADMIL1 ADMIL G463 BGO L507 IGONI WILLA1C
Aircraft B77W/H-SDE1E2E3FGHIJ2J3J4J5M1RWXY/LB1D1

Departure

Time 2026-04-21 13:27
Airport Hazrat Shahjalal International Airport (VGHS)

Arrival

Time N/A
Airport Suvarnabhumi Airport (VTBS)
Time Latitude Longitude Altitude Speed Heading
2026-04-21 12:53 23.84837 90.40338 41 ft 0 kts 54°
2026-04-21 12:53 23.84838 90.40338 41 ft 0 kts 54°
2026-04-21 12:54 23.84837 90.40338 41 ft 0 kts 54°
2026-04-21 13:15 23.84837 90.40337 13 ft 2 kts 54°
2026-04-21 13:15 23.84821 90.40314 38 ft 4 kts 53°
2026-04-21 13:15 23.84805 90.40292 37 ft 3 kts 48°
2026-04-21 13:16 23.84794 90.40280 37 ft 2 kts 20°
2026-04-21 13:16 23.84783 90.40279 38 ft 2 kts 333°
2026-04-21 13:16 23.84773 90.40285 39 ft 2 kts 325°
2026-04-21 13:16 23.84771 90.40287 40 ft 0 kts 324°
2026-04-21 13:19 23.84772 90.40287 40 ft 0 kts 324°
2026-04-21 13:20 23.84779 90.40281 39 ft 3 kts 324°
2026-04-21 13:20 23.84802 90.40263 37 ft 5 kts 324°
2026-04-21 13:20 23.84839 90.40233 41 ft 8 kts 323°
2026-04-21 13:20 23.84889 90.40193 41 ft 9 kts 325°
2026-04-21 13:21 23.84958 90.40167 41 ft 12 kts 347°
2026-04-21 13:21 23.85034 90.40120 41 ft 14 kts 325°
2026-04-21 13:21 23.85106 90.40062 41 ft 12 kts 323°
2026-04-21 13:21 23.85170 90.40011 41 ft 4 kts 320°
2026-04-21 13:22 23.85168 90.39977 41 ft 6 kts 253°
2026-04-21 13:22 23.85147 90.39932 41 ft 8 kts 235°
2026-04-21 13:22 23.85113 90.39877 41 ft 10 kts 247°
2026-04-21 13:22 23.85139 90.39810 41 ft 11 kts 316°
2026-04-21 13:23 23.85206 90.39754 41 ft 13 kts 324°
2026-04-21 13:23 23.85286 90.39691 41 ft 15 kts 324°
2026-04-21 13:23 23.85378 90.39619 41 ft 17 kts 324°
2026-04-21 13:23 23.85476 90.39541 41 ft 15 kts 323°
2026-04-21 13:24 23.85562 90.39472 41 ft 15 kts 323°
2026-04-21 13:24 23.85655 90.39398 41 ft 17 kts 324°
2026-04-21 13:24 23.85746 90.39325 41 ft 13 kts 320°
2026-04-21 13:24 23.85752 90.39245 41 ft 12 kts 239°
2026-04-21 13:25 23.85699 90.39168 41 ft 14 kts 233°
2026-04-21 13:25 23.85638 90.39079 41 ft 15 kts 233°
2026-04-21 13:25 23.85571 90.38978 40 ft 17 kts 234°
2026-04-21 13:25 23.85513 90.38895 40 ft 9 kts 221°
2026-04-21 13:26 23.85455 90.38892 40 ft 9 kts 156°
2026-04-21 13:26 23.85364 90.38963 40 ft 40 kts 144°
2026-04-21 13:26 23.84905 90.39327 42 ft 120 kts 144°
2026-04-21 13:26 23.84056 90.39994 101 ft 174 kts 144°
2026-04-21 13:27 23.83060 90.40817 661 ft 182 kts 143°
2026-04-21 13:27 23.82036 90.41626 1408 ft 180 kts 147°
2026-04-21 13:27 23.81097 90.42443 2267 ft 176 kts 144°
2026-04-21 13:27 23.80075 90.43368 2551 ft 205 kts 143°
2026-04-21 13:28 23.78899 90.44435 2792 ft 234 kts 144°
2026-04-21 13:28 23.77609 90.45609 3355 ft 248 kts 143°
2026-04-21 13:28 23.76251 90.46843 3943 ft 262 kts 143°
2026-04-21 13:28 23.74813 90.48146 4586 ft 274 kts 143°
2026-04-21 13:29 23.73323 90.49493 5311 ft 282 kts 142°
2026-04-21 13:29 23.71789 90.50877 6062 ft 290 kts 143°
2026-04-21 13:29 23.70214 90.52296 6794 ft 296 kts 143°
2026-04-21 13:29 23.68631 90.53721 7577 ft 302 kts 143°
2026-04-21 13:30 23.66997 90.55191 8327 ft 307 kts 143°
2026-04-21 13:30 23.65332 90.56687 9065 ft 313 kts 143°
2026-04-21 13:30 23.63635 90.58213 9807 ft 319 kts 143°
2026-04-21 13:30 23.61882 90.59786 10274 ft 337 kts 143°
2026-04-21 13:31 23.59995 90.61478 10460 ft 365 kts 143°
2026-04-21 13:31 23.57966 90.63299 10702 ft 389 kts 143°
2026-04-21 13:31 23.55845 90.65208 11306 ft 401 kts 142°
2026-04-21 13:31 23.53669 90.67165 12105 ft 409 kts 143°
2026-04-21 13:32 23.51468 90.69142 13021 ft 413 kts 143°
2026-04-21 13:32 23.49233 90.71147 13874 ft 418 kts 143°
2026-04-21 13:32 23.46979 90.73168 14744 ft 421 kts 143°
2026-04-21 13:32 23.44718 90.75196 15671 ft 422 kts 143°
2026-04-21 13:33 23.42447 90.77233 16563 ft 424 kts 143°
2026-04-21 13:33 23.40161 90.79282 17417 ft 428 kts 143°
2026-04-21 13:33 23.37853 90.81351 18210 ft 432 kts 143°
2026-04-21 13:33 23.35521 90.83439 18902 ft 437 kts 144°
2026-04-21 13:34 23.33157 90.85554 19558 ft 442 kts 144°
2026-04-21 13:34 23.30768 90.87692 20213 ft 447 kts 144°
2026-04-21 13:34 23.28356 90.89853 20879 ft 452 kts 144°
2026-04-21 13:34 23.25915 90.92040 21541 ft 457 kts 144°
2026-04-21 13:35 23.23450 90.94249 22190 ft 462 kts 145°
2026-04-21 13:35 23.20960 90.96478 22824 ft 466 kts 145°
2026-04-21 13:35 23.18441 90.98731 23412 ft 471 kts 145°
2026-04-21 13:35 23.15902 91.01017 23925 ft 476 kts 145°
2026-04-21 13:36 23.13363 91.03335 24470 ft 479 kts 144°
2026-04-21 13:36 23.10809 91.05677 25010 ft 482 kts 144°
2026-04-21 13:36 23.08273 91.08004 25531 ft 485 kts 145°
2026-04-21 13:36 23.05683 91.10377 26068 ft 489 kts 145°
2026-04-21 13:37 23.03078 91.12758 26589 ft 492 kts 145°
2026-04-21 13:37 23.00449 91.15158 27101 ft 495 kts 145°
2026-04-21 13:37 22.97803 91.17572 27611 ft 498 kts 145°
2026-04-21 13:37 22.95139 91.20000 28101 ft 502 kts 145°
2026-04-21 13:38 22.92457 91.22443 28576 ft 505 kts 145°
2026-04-21 13:38 22.89758 91.24902 29050 ft 508 kts 146°
2026-04-21 13:38 22.87041 91.27375 29480 ft 512 kts 146°
2026-04-21 13:38 22.84303 91.29865 29890 ft 515 kts 146°
2026-04-21 13:39 22.81551 91.32364 30214 ft 518 kts 146°
2026-04-21 13:39 22.78788 91.34872 30593 ft 519 kts 146°
2026-04-21 13:39 22.76026 91.37380 31054 ft 518 kts 146°
2026-04-21 13:39 22.73264 91.39888 31529 ft 517 kts 146°
2026-04-21 13:40 22.70505 91.42392 31967 ft 517 kts 147°
2026-04-21 13:40 22.67749 91.44892 32386 ft 517 kts 147°
2026-04-21 13:40 22.64991 91.47391 32849 ft 517 kts 147°
2026-04-21 13:40 22.62237 91.49886 33269 ft 516 kts 147°
2026-04-21 13:41 22.59487 91.52376 33706 ft 515 kts 147°
2026-04-21 13:41 22.56739 91.54861 34091 ft 515 kts 147°
2026-04-21 13:41 22.53993 91.57341 34480 ft 514 kts 148°
2026-04-21 13:41 22.51254 91.59812 34874 ft 512 kts 148°
2026-04-21 13:42 22.48553 91.62248 35253 ft 511 kts 148°
2026-04-21 13:42 22.45827 91.64706 35611 ft 510 kts 148°
2026-04-21 13:42 22.43100 91.67162 35961 ft 510 kts 148°
2026-04-21 13:42 22.40379 91.69613 36326 ft 508 kts 148°
2026-04-21 13:43 22.37664 91.72058 36695 ft 507 kts 148°
2026-04-21 13:43 22.34950 91.74499 36789 ft 511 kts 148°
2026-04-21 13:43 22.29486 91.79413 36770 ft 510 kts 148°
2026-04-21 13:44 22.24073 91.84278 36768 ft 504 kts 148°
2026-04-21 13:44 22.19594 91.88282 36773 ft 502 kts 148°
2026-04-21 13:45 22.14217 91.93079 36779 ft 501 kts 148°
2026-04-21 13:45 22.08835 91.97880 36781 ft 502 kts 148°
2026-04-21 13:46 22.03458 92.02675 36795 ft 502 kts 148°
2026-04-21 13:46 21.98066 92.07480 36797 ft 503 kts 148°
2026-04-21 13:47 21.92659 92.12284 36800 ft 504 kts 148°
2026-04-21 13:47 21.87199 92.17020 36799 ft 504 kts 148°
2026-04-21 13:48 21.81719 92.21745 36811 ft 505 kts 148°
2026-04-21 13:48 21.76241 92.26484 36810 ft 506 kts 148°
2026-04-21 13:49 21.70757 92.31230 36813 ft 506 kts 148°
2026-04-21 13:49 21.65326 92.36043 36816 ft 509 kts 144°
2026-04-21 13:50 21.60125 92.41213 36825 ft 510 kts 143°
2026-04-21 13:50 21.54957 92.46436 36829 ft 510 kts 143°
2026-04-21 13:51 21.49819 92.51598 36830 ft 509 kts 143°
2026-04-21 13:51 21.44642 92.56766 36839 ft 508 kts 143°
2026-04-21 13:52 21.39465 92.61918 36841 ft 508 kts 143°
2026-04-21 13:52 21.34281 92.67070 36822 ft 508 kts 143°
2026-04-21 13:53 21.29098 92.72220 36833 ft 508 kts 143°
2026-04-21 13:53 21.23914 92.77367 36830 ft 508 kts 143°
2026-04-21 13:54 21.18727 92.82513 36828 ft 508 kts 143°
2026-04-21 13:54 21.13541 92.87650 36834 ft 508 kts 143°
2026-04-21 13:55 21.08354 92.92784 36832 ft 508 kts 143°
2026-04-21 13:55 21.03170 92.97911 36830 ft 507 kts 143°
2026-04-21 13:56 20.97979 93.03037 36827 ft 507 kts 143°
2026-04-21 13:56 20.92798 93.08151 36848 ft 507 kts 143°
2026-04-21 13:57 20.87625 93.13251 36848 ft 505 kts 143°
2026-04-21 13:57 20.82458 93.18340 36834 ft 505 kts 143°
2026-04-21 13:58 20.77288 93.23427 36832 ft 505 kts 143°
2026-04-21 13:58 20.72118 93.28508 36848 ft 505 kts 143°
2026-04-21 13:59 20.66984 93.33551 36857 ft 505 kts 143°
2026-04-21 13:59 20.61814 93.38621 36856 ft 504 kts 143°
2026-04-21 14:00 20.56660 93.43675 36863 ft 503 kts 143°
2026-04-21 14:00 20.51504 93.48722 36853 ft 503 kts 143°